Date,TemperatureHighF,TemperatureAvgF,TemperatureLowF,DewpointHighF,DewpointAvgF,DewpointLowF,HumidityHigh,HumidityAvg,HumidityLow,PressureMaxIn,PressureMinIn,WindSpeedMaxMPH,WindSpeedAvgMPH,GustSpeedMaxMPH,PrecipitationSumIn
2013-1-1,37.4,30.2,20.9,23.3,15.7,7.9,64,54,48,29.87,29.68,19,2,19,0.04
2013-1-2,29.5,20.8,13.5,15.5,9.8,3.6,75,62,51,30.04,29.83,14,1,14,0.00
2013-1-3,24.7,15.3,5.9,11.2,1.5,-3.7,69,55,30,30.08,29.93,9,1,0,0.00
2013-1-4,31.3,27.9,20.2,23.0,19.6,11.0,74,71,67,29.93,29.79,7,0,0,0.04
2013-1-5,41.7,32.3,23.8,25.0,21.7,19.5,86,66,46,30.20,29.79,13,1,13,0.07
2013-1-6,42.6,32.4,24.3,29.7,25.5,20.2,91,76,57,30.17,29.87,17,1,17,0.07
2013-1-8,34.5,33.7,32.4,28.9,28.5,27.8,83,81,79,30.30,30.29,0,0,0,0.01
2013-1-9,43.9,35.9,24.5,36.5,29.6,22.8,94,79,61,30.34,29.92,17,1,0,0.00
2013-1-10,46.7,41.0,32.4,30.6,25.0,23.5,71,53,41,30.47,29.98,11,2,0,0.00
2013-1-11,40.1,33.8,25.5,35.3,28.6,22.2,95,82,69,30.46,30.16,3,0,0,0.11
2013-1-12,43.7,40.6,36.6,42.1,39.6,35.3,98,96,93,30.17,30.06,1,0,0,0.01
2013-1-13,51.8,46.5,41.5,49.8,45.5,41.0,98,96,92,30.09,29.93,7,1,0,0.01
2013-1-14,61.1,52.0,42.5,52.5,44.1,28.4,96,76,43,30.19,29.80,14,1,0,0.00
2013-1-15,42.5,38.3,32.9,30.7,27.1,23.8,81,64,56,30.25,30.14,5,0,0,0.00
2013-1-16,35.9,33.0,31.2,32.3,30.0,23.8,97,90,62,30.18,29.75,5,0,0,0.11
2013-1-17,41.8,35.0,30.3,33.0,28.0,16.2,97,77,55,30.04,29.77,12,1,0,0.18
2013-1-18,30.3,21.9,18.7,17.7,1.2,-4.5,59,41,28,30.40,30.00,13,1,0,0.00
2013-1-19,43.7,32.2,21.5,33.2,19.9,6.2,75,60,48,30.34,29.83,24,3,0,0.07
2013-1-20,54.1,43.9,28.8,34.5,28.7,9.2,74,56,36,29.86,29.47,30,4,0,0.00
2013-1-21,28.8,25.9,23.3,22.1,11.9,5.1,91,57,40,30.04,29.73,15,1,0,0.00
2013-1-22,24.2,19.9,13.6,21.6,11.4,-0.5,91,71,44,30.02,29.69,16,1,0,0.00
2013-1-23,15.7,11.8,7.5,0.1,-7.5,-10.1,56,41,31,30.08,30.00,11,2,0,0.00
2013-1-24,19.6,11.3,3.5,-5.4,-8.5,-11.0,55,40,27,30.17,29.99,17,2,0,0.00
2013-1-25,24.2,16.2,8.1,13.5,-5.1,-10.8,86,40,23,30.24,30.00,13,1,0,0.00
2013-1-26,24.5,17.3,11.2,13.4,4.6,-5.0,88,60,33,30.17,29.94,10,1,0,0.00
2013-1-27,29.5,20.7,12.1,4.8,1.8,-3.5,66,45,28,30.40,30.16,11,1,0,0.00
2013-1-28,30.7,24.0,17.7,26.8,12.9,2.6,94,65,32,30.39,29.95,10,0,0,0.00
2013-1-29,33.7,30.4,26.3,31.8,28.5,24.6,96,92,86,30.14,29.95,2,0,0,0.10
2013-1-30,60.9,50.1,32.8,57.3,48.1,31.8,97,93,85,30.10,29.41,20,4,0,0.10
2013-1-31,60.9,43.9,31.9,58.6,31.0,15.9,93,62,39,29.53,28.92,23,4,0,0.07
2013-2-1,33.4,28.6,22.4,18.9,10.2,4.2,59,46,33,30.02,29.53,18,3,0,0.00
2013-2-2,29.0,24.3,17.9,13.8,7.9,2.4,59,49,39,30.19,29.99,14,1,0,0.01
2013-2-3,27.6,24.5,22.0,22.5,20.1,12.4,88,83,55,30.00,29.67,10,0,0,0.00
2013-2-4,29.4,24.2,19.7,21.0,12.4,6.6,89,62,40,29.89,29.66,21,2,0,0.00
2013-2-5,27.0,24.3,21.0,23.5,14.7,9.5,92,67,55,29.97,29.87,8,0,0,0.00
2013-2-6,38.6,30.2,25.5,27.0,20.3,5.8,93,69,40,30.23,29.86,16,1,0,0.06
2013-2-7,29.8,24.6,18.9,17.1,6.0,1.1,68,45,31,30.46,30.23,10,0,0,0.00
2013-2-8,32.1,29.2,19.7,30.7,26.0,16.6,97,88,67,30.42,29.49,27,3,0,0.00
2013-2-9,20.9,17.7,13.5,19.2,15.6,9.6,94,92,84,30.13,29.46,14,2,0,0.00
2013-2-10,35.4,20.9,8.0,25.4,14.3,4.7,89,76,47,30.33,30.13,7,0,0,0.04
2013-2-11,45.2,33.2,14.7,44.1,31.2,12.0,98,92,76,30.29,29.54,12,1,0,0.22
2013-2-12,43.9,38.4,31.0,40.9,29.9,25.6,97,72,54,29.82,29.55,18,2,0,0.22
2013-2-13,42.9,33.9,26.8,28.2,25.3,22.0,86,72,51,29.81,29.62,9,0,0,0.04
2013-2-14,43.9,36.0,30.6,29.9,24.3,20.8,92,64,41,29.94,29.65,7,0,0,0.06
2013-2-15,49.4,38.7,28.7,36.4,31.9,23.7,95,77,58,29.95,29.84,18,2,0,0.00
2013-2-16,37.1,33.6,30.3,32.4,29.0,19.5,96,84,59,29.89,29.62,9,0,0,0.03
2013-2-17,31.2,21.7,17.3,22.1,13.0,1.4,91,71,44,29.62,29.32,19,4,0,0.00
2013-2-18,31.7,22.6,14.6,5.9,2.7,0.5,56,43,27,30.10,29.61,21,3,0,0.00
2013-2-19,46.9,36.5,22.0,42.0,25.3,3.3,97,65,42,30.11,29.51,13,2,0,0.08
2013-2-20,41.7,32.4,26.1,40.8,20.9,10.5,97,64,42,29.73,29.46,19,3,0,0.15
2013-2-21,34.2,27.8,24.4,16.5,14.1,10.9,68,56,43,30.12,29.72,16,2,0,0.00
2013-2-22,36.9,30.8,24.3,26.1,22.2,16.2,83,71,58,30.32,30.12,13,1,0,0.06
2013-2-23,38.6,34.8,28.8,33.8,29.9,24.5,96,83,71,30.28,29.85,7,0,0,0.06
2013-2-24,37.8,34.6,30.5,37.0,33.6,29.5,97,96,94,29.85,29.62,13,1,0,0.15
2013-2-25,41.8,34.3,29.7,32.1,30.0,28.3,96,85,64,30.19,29.83,8,0,0,0.07
2013-2-26,43.0,35.1,25.9,33.7,29.4,24.7,97,81,62,30.28,30.09,13,1,0,0.10
2013-2-27,41.4,39.1,37.4,40.2,37.4,32.7,98,94,83,30.09,29.49,15,2,0,0.06
2013-2-28,46.9,37.8,33.6,38.8,35.0,32.3,97,90,70,29.59,29.46,5,0,0,0.04
2013-3-1,40.5,37.6,33.8,35.0,31.0,28.2,96,78,65,29.62,29.47,8,0,0,0.02
2013-3-2,44.4,37.6,32.0,30.8,28.0,25.6,80,68,55,29.61,29.55,7,0,0,0.00
2013-3-3,42.6,35.9,32.6,32.3,28.7,25.1,92,75,62,29.58,29.49,9,0,0,0.00
2013-3-4,39.7,34.3,29.7,29.0,24.8,21.3,84,68,52,29.67,29.51,17,2,0,0.01
2013-3-5,43.4,35.9,31.2,34.5,28.0,22.9,92,73,57,30.01,29.67,10,1,0,0.01
2013-3-6,39.4,37.1,34.9,35.7,33.4,30.0,93,86,71,30.05,29.97,24,5,0,0.00
2013-3-7,36.4,32.0,30.1,31.5,30.3,29.1,97,94,78,29.99,29.91,26,3,0,0.00
2013-3-8,39.7,32.2,28.9,31.0,28.2,23.5,98,86,57,30.08,29.87,12,1,0,0.00
2013-3-9,39.1,34.7,26.5,31.3,27.1,22.3,95,74,59,30.29,30.07,12,2,0,0.00
2013-3-10,39.9,31.0,23.3,32.2,27.7,21.8,95,88,72,30.35,30.26,9,1,0,0.10
2013-3-11,42.0,37.3,34.0,39.6,34.9,31.4,93,91,89,30.27,30.09,5,0,0,0.01
2013-3-12,54.2,45.8,39.0,52.8,44.5,37.3,97,95,93,30.11,29.67,13,2,0,0.01
2013-3-13,51.4,43.9,34.2,50.2,38.8,21.9,97,83,54,29.72,29.66,9,0,0,0.00
2013-3-14,35.9,30.9,23.1,24.7,15.6,6.1,68,53,41,29.78,29.66,16,2,0,0.00
2013-3-15,38.6,30.5,20.2,26.9,15.8,6.2,74,55,30,29.81,29.58,16,2,0,0.16
2013-3-16,40.5,34.3,27.9,27.0,15.1,7.3,75,47,27,29.81,29.61,10,1,0,0.13
2013-3-17,39.2,33.5,25.5,21.2,11.8,4.5,70,43,25,30.07,29.81,12,1,0,0.05
2013-3-18,30.6,28.7,28.3,26.4,25.4,22.6,92,88,72,30.22,30.19,9,1,0,0.10
2013-3-19,31.8,29.2,28.2,30.8,27.7,26.3,96,94,92,30.19,29.61,9,1,0,0.03
2013-3-20,28.3,26.3,24.1,26.4,24.1,22.1,94,91,90,29.67,29.63,7,0,0,0.00
2013-3-21,30.5,30.3,30.1,28.8,28.6,28.2,94,93,93,29.57,29.55,3,0,0,0.09
2013-3-22,30.2,29.8,29.7,28.4,25.7,20.9,93,85,70,29.56,29.55,6,0,0,0.00
2013-3-23,43.3,41.0,37.4,21.4,19.7,17.3,50,42,37,29.62,29.57,17,4,0,0.03
2013-3-27,43.9,42.8,41.9,31.4,30.2,29.0,66,61,56,29.80,29.79,8,2,0,0.02
2013-3-28,47.4,42.3,37.5,34.9,32.6,29.8,90,69,52,29.95,29.80,11,1,0,0.00
2013-3-29,55.2,45.2,34.6,36.3,32.8,27.9,85,64,38,29.96,29.90,11,0,0,0.00
2013-3-30,58.1,47.4,36.5,28.6,23.1,14.5,69,42,20,30.04,29.94,5,0,0,0.00
2013-3-31,58.6,44.7,28.4,26.9,24.5,20.9,84,51,24,30.07,29.95,15,1,0,0.02
2013-4-1,58.4,45.9,35.3,43.3,33.4,12.9,94,64,38,29.73,29.51,17,2,0,0.00
2013-4-2,37.2,33.5,29.0,19.6,15.5,11.4,57,47,40,29.83,29.73,14,2,0,0.01
2013-4-3,35.6,34.6,33.6,15.8,15.3,14.7,47,45,42,30.10,30.05,11,2,0,0.04
2013-4-4,42.2,38.9,33.0,27.7,23.2,15.4,64,53,47,30.12,30.00,8,2,0,0.06
2013-4-5,46.4,42.3,38.3,28.4,26.4,24.5,67,53,43,30.00,29.76,12,1,0,0.00
2013-4-6,48.6,44.3,39.3,26.8,6.9,2.1,59,22,16,30.21,29.82,14,2,0,0.00
2013-4-7,46.9,43.9,36.4,40.3,32.0,22.2,81,64,40,30.27,29.95,14,3,0,0.04
2013-4-9,51.9,48.2,46.6,48.7,44.2,41.8,93,86,79,29.98,29.81,8,0,6,0.01
2013-4-10,61.9,50.7,45.1,48.3,44.6,41.5,94,81,58,29.97,29.79,10,1,10,0.00
2013-4-11,52.2,46.0,41.7,46.1,41.6,37.9,97,85,63,30.08,29.76,10,1,10,0.00
2013-4-12,41.7,38.7,36.6,39.8,35.7,30.9,96,89,71,30.11,29.71,20,3,20,0.01
2013-4-13,52.3,42.5,35.9,40.7,37.3,34.1,96,83,59,29.87,29.68,16,1,16,0.00
2013-4-14,51.4,45.1,37.9,40.7,33.3,25.6,94,66,39,30.15,29.86,12,1,12,0.00
2013-4-15,52.9,43.7,30.2,39.6,33.4,27.4,90,68,52,30.34,30.15,11,1,11,0.00
2013-4-16,61.4,50.9,37.7,49.7,41.3,35.3,93,71,49,30.35,29.99,26,3,26,0.00
2013-4-17,70.3,58.4,45.4,52.0,39.3,28.2,84,53,22,30.27,30.00,17,1,17,0.00
2013-4-18,62.9,51.4,37.4,44.4,34.7,25.4,94,57,30,30.36,30.09,18,2,18,0.00
2013-4-19,72.7,62.3,51.8,62.5,57.6,44.5,97,85,65,30.09,29.61,23,4,23,0.00
2013-4-20,64.6,54.4,45.1,62.2,42.3,24.9,96,67,39,30.16,29.55,19,2,23,0.00
2013-4-21,53.4,43.1,34.3,29.5,23.7,19.0,76,47,27,30.62,30.16,11,1,11,0.00
2013-4-22,48.9,41.1,30.8,36.7,31.7,26.3,92,71,43,30.69,30.53,19,2,19,0.00
2013-4-23,42.0,41.0,39.7,40.5,38.3,31.8,96,91,72,30.53,30.05,15,2,15,0.00
2013-4-24,73.8,53.6,41.6,52.5,45.1,40.5,96,76,36,30.05,29.74,15,2,15,0.00
2013-4-25,67.0,55.3,44.0,51.9,38.5,25.6,94,59,23,30.20,29.78,19,2,19,0.00
2013-4-26,53.6,47.6,40.4,42.3,38.5,30.9,93,71,55,30.37,30.20,18,2,18,0.00
2013-4-27,62.6,50.1,35.0,43.5,36.4,30.4,97,64,33,30.36,30.24,10,1,10,0.00
2013-4-28,68.7,53.9,37.3,42.9,35.9,27.1,92,55,30,30.28,30.15,13,1,13,0.00
2013-4-29,68.2,56.2,46.0,47.0,36.9,12.5,90,54,16,30.22,30.13,13,1,13,0.00
2013-4-30,67.5,54.5,41.0,40.2,32.3,16.9,86,48,18,30.31,30.20,12,1,12,0.00
2013-5-1,67.8,53.3,36.4,41.1,35.5,27.9,88,55,25,30.42,30.31,9,1,9,0.00
2013-5-2,74.7,54.2,41.9,48.2,41.8,34.2,92,68,26,30.42,30.30,18,1,18,0.00
2013-5-3,55.9,48.0,41.2,44.6,41.4,38.8,91,78,65,30.46,30.32,16,2,16,0.00
2013-5-4,54.1,45.8,36.4,44.5,39.0,34.8,96,78,56,30.32,30.25,13,1,13,0.00
2013-5-5,56.9,46.0,33.3,43.3,39.2,31.7,96,78,55,30.27,30.20,12,1,12,0.00
2013-5-6,62.2,49.4,37.2,51.6,44.8,35.4,97,85,64,30.24,30.09,9,1,9,0.00
2013-5-7,79.5,61.9,43.3,59.8,51.6,42.0,97,72,48,30.12,30.03,12,1,12,0.00
2013-5-8,71.3,61.1,52.0,63.4,57.2,50.4,97,88,69,30.15,29.99,10,0,10,0.20
2013-5-9,67.4,58.5,55.1,61.8,57.3,54.3,98,96,79,29.99,29.83,6,0,6,0.33
2013-5-10,78.0,65.8,54.4,61.4,57.3,53.8,98,76,48,29.90,29.83,9,0,9,0.05
2013-5-11,71.9,63.0,57.7,62.0,58.4,53.8,95,85,67,29.87,29.64,18,2,18,0.04
2013-5-12,72.0,61.2,51.1,59.7,51.7,31.2,96,74,40,29.75,29.50,18,1,18,0.01
2013-5-13,60.9,50.8,40.9,34.5,31.1,26.8,75,48,29,29.97,29.76,15,1,15,0.00
2013-5-14,58.1,50.5,39.1,35.1,31.3,27.1,78,49,32,29.99,29.91,14,0,14,0.00
2013-5-15,64.1,52.6,37.9,52.3,40.0,30.0,90,66,33,30.00,29.61,16,2,16,0.01
2013-5-16,82.3,66.6,49.7,51.9,43.6,34.0,95,52,20,29.74,29.57,20,1,20,0.00
2013-5-17,70.6,59.5,50.4,48.6,42.9,39.6,78,56,33,30.16,29.74,11,1,11,0.00
2013-5-18,70.5,59.8,45.6,49.3,44.9,37.0,92,61,31,30.24,30.16,9,0,9,0.00
2013-5-19,67.7,56.2,48.3,54.1,50.1,45.3,95,81,52,30.29,30.17,9,0,9,0.02
2013-5-20,83.4,66.7,54.8,65.7,60.0,53.5,97,81,52,30.17,29.84,13,1,13,0.01
2013-5-21,72.5,58.6,50.7,63.5,55.9,49.6,97,91,71,29.95,29.82,14,1,14,0.01
2013-5-22,64.6,55.3,50.1,59.9,53.1,49.0,98,93,81,29.99,29.83,9,0,9,0.00
2013-5-23,75.5,65.0,53.6,68.7,62.0,52.8,99,91,73,29.87,29.75,17,1,20,0.00
2013-5-24,69.5,62.4,50.5,66.0,60.7,49.7,97,95,82,29.76,29.60,12,0,12,0.00
2013-5-25,51.4,47.7,41.5,50.2,46.7,39.1,98,96,92,29.75,29.64,13,1,13,0.01
2013-5-26,59.6,48.3,39.2,43.4,39.8,37.4,95,74,48,30.04,29.66,14,1,14,0.00
2013-5-27,73.8,57.4,41.1,46.7,39.7,33.1,92,58,23,30.11,30.01,13,1,13,0.01
2013-5-28,71.7,59.1,42.0,55.7,48.3,40.4,95,70,44,30.18,30.10,7,0,7,0.00
2013-5-29,73.0,62.3,57.7,65.3,59.5,53.9,97,91,76,30.14,29.93,10,0,10,0.00
2013-5-30,88.6,75.2,63.1,69.8,66.4,62.2,98,77,50,30.02,29.93,14,1,14,0.00
2013-5-31,93.5,80.6,65.3,70.2,66.7,63.5,97,67,38,30.02,29.87,13,1,13,0.00
2013-6-1,91.3,79.8,68.6,68.3,65.1,61.8,81,63,40,29.92,29.80,17,1,18,0.00
2013-6-2,86.5,75.6,67.1,69.4,65.8,63.1,88,73,52,29.83,29.68,19,2,19,0.00
2013-6-3,75.2,67.8,64.2,67.5,64.0,44.1,97,88,48,29.79,29.69,10,0,10,0.00
2013-6-4,72.5,62.3,51.9,48.8,45.3,41.7,73,55,38,30.03,29.76,5,1,8,0.00
2013-6-5,75.3,63.3,48.7,51.9,46.5,41.1,90,57,33,30.13,30.03,10,0,10,0.00
2013-6-6,73.7,63.9,54.4,56.6,50.3,43.9,84,63,39,30.13,30.04,9,0,9,0.00
2013-6-7,59.4,55.3,53.5,57.0,54.0,51.5,98,95,79,30.06,29.75,11,1,11,0.00
2013-6-8,78.8,63.4,53.6,64.7,58.1,53.0,98,85,61,29.93,29.54,13,1,13,0.00
2013-6-9,80.2,69.5,57.5,59.0,57.2,53.6,96,67,43,30.10,29.93,12,0,12,0.00
2013-6-10,68.5,60.9,55.0,60.0,57.1,53.1,96,88,67,30.14,29.96,6,0,6,0.00
2013-6-11,64.8,58.3,54.8,60.0,56.8,53.9,98,95,83,29.97,29.51,10,0,10,0.00
2013-6-12,69.7,61.6,55.2,58.6,55.8,53.6,98,83,59,29.75,29.50,13,1,17,0.00
2013-6-13,66.0,57.0,51.4,59.4,53.7,50.0,97,89,71,29.76,29.60,7,0,7,0.00
2013-6-14,72.1,59.6,51.8,59.3,53.8,49.1,97,83,57,29.70,29.56,10,1,10,0.00
2013-6-15,80.3,66.9,53.0,55.6,49.6,41.6,94,59,28,29.88,29.70,10,0,12,0.06
2013-6-16,74.8,66.3,54.6,62.7,54.4,46.9,90,67,44,29.88,29.66,9,1,11,0.00
2013-6-17,85.0,69.9,59.6,64.4,60.5,56.5,97,76,39,29.84,29.71,16,1,16,0.73
2013-6-18,73.8,62.3,57.4,63.8,59.2,56.0,98,90,63,29.89,29.82,9,0,9,0.35
2013-6-19,75.3,64.4,55.5,57.6,52.9,46.3,97,69,38,30.08,29.84,8,0,8,0.00
2013-6-20,80.5,66.9,52.3,57.2,52.8,47.3,96,65,33,30.19,30.08,9,0,9,0.00
2013-6-21,84.4,71.3,59.3,66.1,59.7,53.8,83,68,45,30.19,30.12,13,1,13,0.00
2013-6-22,83.8,72.1,63.5,63.4,58.7,54.7,77,64,44,30.16,30.05,17,1,17,0.00
2013-6-23,89.1,76.5,65.6,71.9,65.1,56.0,81,69,52,30.10,29.93,16,2,16,0.00
2013-6-24,93.1,80.7,70.2,73.3,70.3,67.4,94,73,49,29.96,29.80,13,1,13,0.04
2013-6-25,91.4,79.0,68.2,71.6,68.2,65.6,95,72,47,29.85,29.66,18,1,18,0.00
2013-6-26,83.8,74.6,67.5,73.1,68.5,65.3,94,82,61,29.79,29.66,8,0,8,0.00
2013-6-27,67.4,63.6,61.1,65.6,62.5,60.2,98,96,90,29.81,29.70,6,0,6,0.00
2013-6-28,79.8,69.7,60.9,72.7,67.2,60.3,99,92,76,29.70,29.44,13,1,14,0.36
2013-6-29,81.0,73.7,70.3,71.4,69.0,66.8,97,86,65,29.67,29.46,17,1,17,0.17
2013-6-30,82.3,74.7,69.9,73.0,69.8,67.3,94,85,71,29.88,29.67,11,1,11,0.03
2013-7-1,83.2,74.7,70.6,74.9,71.6,69.2,97,90,74,30.02,29.88,12,0,12,0.04
2013-7-2,81.4,72.0,61.3,74.2,68.5,59.6,95,89,69,30.15,30.02,11,0,11,0.00
2013-7-3,87.8,75.3,61.5,74.2,68.9,60.0,98,82,62,30.14,30.07,19,1,19,0.00
2013-7-4,91.6,82.1,72.6,75.5,73.3,70.6,95,76,56,30.14,30.02,12,1,14,0.00
2013-7-5,93.5,83.9,75.8,76.3,73.1,70.8,87,72,50,30.09,29.97,15,1,15,0.00
2013-7-6,92.2,83.1,75.0,75.2,72.1,66.2,89,71,52,30.01,29.90,11,1,11,0.00
2013-7-7,94.2,80.0,71.3,75.6,71.2,65.9,92,76,53,29.96,29.84,7,0,7,0.00
2013-7-8,83.4,74.5,65.4,75.0,70.1,63.9,97,87,72,30.00,29.84,9,0,9,0.24
2013-7-9,72.8,67.5,64.5,67.2,65.0,63.6,98,92,82,30.04,29.98,3,0,3,0.01
2013-7-10,84.4,73.9,66.1,75.0,70.1,64.3,98,88,70,30.01,29.74,14,1,14,0.01
2013-7-11,80.0,75.0,70.2,74.4,72.0,69.3,97,91,79,29.85,29.72,9,0,9,0.28
2013-7-12,70.8,68.0,65.3,69.3,62.7,59.3,98,84,72,30.13,29.85,10,0,10,0.00
2013-7-13,74.3,68.2,64.6,69.2,65.6,62.3,97,92,83,30.25,30.13,5,0,5,0.02
2013-7-14,90.9,78.8,69.2,75.4,72.2,68.3,98,82,51,30.24,30.13,6,0,6,0.00
2013-7-15,92.7,80.9,70.9,75.6,72.7,69.6,97,78,53,30.14,30.03,3,0,3,0.00
2013-7-16,92.6,80.8,69.4,73.5,70.4,66.8,94,73,49,30.10,30.04,6,0,6,0.00
2013-7-17,95.2,81.6,69.7,74.2,70.8,67.3,95,72,43,30.11,29.93,8,0,8,0.00
2013-7-18,90.7,82.7,75.1,75.9,72.7,70.0,88,73,55,29.95,29.88,9,0,9,0.00
2013-7-19,96.1,85.9,76.7,78.1,74.8,71.8,89,71,48,29.88,29.65,21,2,21,0.00
2013-7-20,92.6,83.8,76.6,77.4,74.6,69.5,87,75,52,29.74,29.57,16,1,16,0.00
2013-7-21,82.0,74.8,70.3,69.8,66.1,62.4,91,75,61,29.92,29.74,8,0,8,0.00
2013-7-22,77.8,71.9,66.8,70.0,67.5,65.3,96,86,71,29.95,29.82,5,0,8,0.00
2013-7-23,80.7,72.2,69.2,77.4,70.8,67.0,98,95,83,29.82,29.47,15,0,15,1.80
2013-7-24,84.3,76.5,69.4,73.8,68.3,56.1,99,78,56,29.88,29.52,8,0,8,0.01
2013-7-25,69.0,61.4,58.9,59.5,55.7,50.0,97,82,63,30.03,29.88,7,0,8,0.34
2013-7-26,68.6,63.7,60.2,66.8,62.6,59.3,98,96,90,29.99,29.86,8,0,8,0.19
2013-7-27,83.3,70.5,59.6,68.9,63.6,58.7,99,81,50,30.00,29.93,14,1,14,0.00
2013-7-28,77.4,69.5,66.0,70.5,66.9,64.1,97,92,77,29.95,29.91,6,0,6,0.00
2013-7-29,81.8,72.6,65.7,72.5,68.3,64.8,98,87,64,29.97,29.90,7,0,7,0.01
2013-7-30,82.8,72.4,61.7,68.2,61.1,56.5,96,70,42,30.03,29.96,9,0,9,0.00
2013-7-31,81.0,71.3,60.1,65.6,61.3,57.6,94,72,49,30.07,29.98,5,0,5,0.00
2013-8-1,80.0,71.3,63.3,66.6,62.6,60.9,94,76,53,29.99,29.83,9,0,9,0.00
2013-8-2,82.9,71.4,64.1,68.6,63.3,59.1,98,78,49,29.83,29.73,15,0,15,0.16
2013-8-3,78.5,71.2,66.1,64.7,63.0,61.2,90,76,56,29.81,29.72,7,0,11,0.00
2013-8-4,80.3,68.5,58.8,62.3,58.1,54.0,92,71,42,29.83,29.70,9,0,9,0.00
2013-8-5,77.6,65.2,55.8,57.1,50.0,43.0,88,62,30,29.99,29.83,9,0,9,0.00
2013-8-6,78.4,64.7,50.3,56.5,52.4,47.8,92,68,43,30.09,29.98,7,0,7,0.00
2013-8-7,79.7,67.5,55.5,60.4,54.8,48.8,96,67,37,30.13,30.05,8,0,8,0.00
2013-8-8,79.5,71.3,64.3,70.7,65.7,54.0,94,83,69,30.08,29.95,11,1,11,0.08
2013-8-9,74.3,72.5,71.2,73.2,70.8,68.9,98,94,90,29.97,29.69,11,1,11,0.86
2013-8-10,83.8,73.8,63.2,72.4,62.8,55.4,98,72,40,29.94,29.73,12,0,12,0.00
2013-8-11,80.5,67.5,54.5,59.9,55.7,50.0,95,69,43,30.02,29.94,8,0,8,0.00
2013-8-12,81.8,70.8,61.2,64.7,59.6,54.0,91,70,43,29.97,29.86,10,0,10,0.00
2013-8-13,75.8,68.2,64.3,67.4,64.1,61.4,93,87,69,29.86,29.63,5,0,5,0.01
2013-8-14,74.8,67.0,60.8,63.1,55.5,51.3,95,68,48,29.90,29.60,15,1,15,0.00
2013-8-15,77.3,65.3,53.8,55.0,52.4,48.7,91,66,41,30.05,29.90,10,0,10,0.00
2013-8-16,79.7,67.5,54.9,58.6,55.0,52.0,91,67,40,30.13,30.05,13,0,13,0.00
2013-8-17,79.7,67.5,56.4,61.4,57.6,54.4,94,73,46,30.22,30.13,7,0,7,0.00
2013-8-18,79.0,68.7,60.2,63.8,60.1,55.0,95,76,45,30.21,30.02,9,0,9,0.00
2013-8-19,82.0,70.7,59.2,63.9,60.2,56.3,91,71,46,30.03,29.88,8,0,8,0.00
2013-8-20,86.3,74.3,63.0,66.0,62.6,57.6,92,69,38,30.03,29.91,9,0,9,0.00
2013-8-21,88.5,74.6,62.5,66.8,63.7,59.9,93,72,44,30.08,29.77,12,0,12,0.00
2013-8-22,83.9,74.4,66.6,72.2,67.1,63.2,90,79,56,29.94,29.77,12,1,14,0.00
2013-8-23,76.9,73.1,62.6,68.7,61.9,52.5,87,68,50,30.05,29.79,7,1,14,0.00
2013-8-24,76.8,65.6,56.3,53.7,48.9,41.2,82,57,32,30.27,30.06,9,0,9,0.00
2013-8-25,82.7,67.7,52.6,57.6,53.5,48.7,94,64,37,30.30,30.13,11,0,11,0.00
2013-8-26,78.9,71.2,65.5,66.7,62.0,55.9,82,73,60,30.13,29.81,16,1,17,0.00
2013-8-27,80.0,70.6,64.1,69.3,66.7,62.6,98,88,65,29.83,29.77,7,0,7,0.04
2013-8-28,79.3,67.9,60.7,68.0,63.6,59.5,98,87,64,29.92,29.80,6,0,6,0.00
2013-8-29,64.8,62.6,60.9,63.9,60.9,57.6,98,94,89,30.01,29.89,9,0,9,0.02
2013-8-30,82.0,69.5,61.5,67.9,63.4,58.1,91,82,61,29.97,29.76,10,0,10,0.00
2013-8-31,80.2,73.5,68.9,73.6,70.3,66.8,97,90,79,29.77,29.73,11,0,11,0.05
2013-9-1,77.0,72.3,68.0,75.1,70.8,66.5,98,95,91,29.84,29.73,17,0,17,0.96
2013-9-2,80.8,73.7,68.5,75.0,71.4,67.0,98,93,80,29.82,29.65,12,0,12,0.15
2013-9-3,79.5,72.9,65.0,71.3,68.2,60.1,97,86,68,29.75,29.63,10,0,10,0.00
2013-9-4,79.6,68.3,57.4,61.2,58.1,55.7,95,72,47,29.86,29.74,8,0,11,0.00
2013-9-5,67.0,62.1,52.2,63.0,57.6,50.5,95,86,70,30.08,29.80,8,0,8,0.04
2013-9-6,68.8,56.6,44.6,50.8,44.6,38.8,95,68,37,30.18,30.04,11,0,11,0.00
2013-9-7,77.9,63.6,50.1,57.0,50.8,44.7,85,65,40,30.04,29.80,13,1,13,0.00
2013-9-8,73.5,65.2,51.8,62.2,53.1,41.2,87,67,37,30.03,29.68,12,1,12,0.00
2013-9-9,68.3,56.8,43.8,52.7,45.5,41.0,91,68,41,30.18,30.03,11,0,11,0.00
2013-9-10,75.2,67.0,57.9,69.0,61.8,50.2,93,84,75,30.10,29.97,17,1,17,0.02
2013-9-11,94.3,80.0,68.9,76.9,71.9,67.0,96,79,46,30.01,29.87,16,1,16,0.00
2013-9-12,84.7,75.9,68.3,74.0,70.4,66.8,95,84,67,29.91,29.62,13,1,13,0.20
2013-9-13,78.3,68.4,60.3,69.3,64.8,55.1,98,89,64,29.69,29.50,9,0,9,0.06
2013-9-14,67.3,60.6,52.3,55.5,53.5,50.0,92,78,64,30.00,29.69,9,0,9,0.00
2013-9-15,70.5,58.5,47.6,54.0,50.6,46.5,97,77,50,30.10,29.99,13,0,13,0.00
2013-9-16,65.6,57.9,50.4,56.8,50.9,39.5,92,78,61,30.18,29.96,9,0,9,0.01
2013-9-17,64.4,51.6,43.6,47.1,40.0,35.1,91,66,44,30.36,30.18,10,0,10,0.00
2013-9-18,73.6,56.5,41.6,49.8,45.2,40.0,95,70,34,30.27,30.08,7,0,7,0.00
2013-9-19,80.0,61.7,48.6,57.9,52.3,46.0,92,73,41,30.09,29.97,5,0,5,0.00
2013-9-20,77.3,62.6,51.0,59.7,55.1,49.0,95,78,51,30.03,29.94,6,0,6,0.00
2013-9-21,74.7,66.0,55.1,65.6,60.3,53.7,97,83,60,29.97,29.67,14,1,14,0.00
2013-9-22,70.7,64.8,53.0,66.7,57.9,47.3,97,80,52,29.77,29.55,12,1,12,0.28
2013-9-23,64.2,53.7,45.5,47.2,42.9,39.8,85,68,50,29.94,29.77,10,0,10,0.00
2013-9-24,68.0,53.1,41.3,48.3,42.8,38.6,92,70,43,29.94,29.75,10,0,10,0.00
2013-9-25,61.6,53.8,44.2,50.4,46.8,42.6,95,78,61,29.92,29.83,8,0,8,0.00
2013-9-26,65.4,57.0,53.1,51.1,49.4,46.2,90,76,59,30.06,29.92,7,0,7,0.00
2013-9-27,65.4,57.7,48.9,54.2,50.7,46.9,93,78,58,30.20,30.06,8,0,8,0.00
2013-9-28,67.6,55.9,46.4,56.9,51.0,45.0,97,85,65,30.27,30.19,7,0,7,0.00
2013-9-29,63.9,53.6,45.3,56.1,49.2,44.0,98,86,60,30.21,30.06,6,0,6,0.00
2013-9-30,65.8,56.0,47.1,53.1,50.6,45.4,96,83,56,30.06,29.91,5,0,6,0.00
2013-10-1,76.5,58.6,44.8,56.2,50.5,43.7,97,78,42,29.91,29.78,6,0,6,0.00
2013-10-2,79.4,65.7,54.2,62.4,57.5,52.5,95,77,53,29.89,29.76,12,1,12,0.00
2013-10-3,76.9,63.3,51.8,56.7,52.1,44.5,96,71,34,30.02,29.89,8,0,8,0.00
2013-10-4,63.2,56.7,50.3,59.1,53.9,48.0,97,90,76,30.02,29.97,3,0,3,0.21
2013-10-5,67.0,60.2,55.4,59.0,56.7,54.6,98,89,68,30.06,29.99,5,0,5,0.02
2013-10-6,59.8,56.9,54.2,57.7,55.6,53.4,98,95,90,30.16,30.05,6,0,8,0.44
2013-10-7,76.4,66.4,56.4,70.4,63.6,55.8,99,91,77,30.07,29.77,17,2,19,0.04
2013-10-8,66.5,58.1,48.6,56.5,45.7,38.9,88,65,43,30.31,29.84,8,0,8,0.00
2013-10-9,58.7,53.5,44.9,47.5,45.0,41.4,93,74,59,30.40,30.30,11,1,11,0.00
2013-10-10,59.9,52.1,42.9,53.8,48.9,41.6,97,89,77,30.30,30.11,8,0,8,0.00
2013-10-11,64.1,56.4,50.5,56.1,51.8,48.2,96,85,59,30.11,30.04,7,0,8,0.00
2013-10-12,59.1,53.8,46.1,56.9,51.5,44.8,98,92,83,30.33,30.08,13,1,13,0.01
2013-10-13,58.7,52.8,41.3,49.7,46.9,39.7,94,81,67,30.38,30.30,12,0,12,0.00
2013-10-14,61.9,48.6,35.3,52.0,43.3,34.3,97,84,46,30.35,30.19,5,0,5,0.00
2013-10-15,63.2,55.1,46.9,54.3,50.1,45.5,96,84,67,30.21,30.13,5,0,6,0.00
2013-10-16,59.6,53.2,45.2,55.8,51.2,44.1,98,93,85,30.12,29.85,5,0,5,0.00
2013-10-17,70.3,60.8,51.9,60.5,57.1,51.1,98,88,70,29.86,29.67,12,1,12,0.00
2013-10-18,66.7,60.4,46.5,61.0,51.9,43.3,96,76,48,29.85,29.56,14,1,14,0.03
2013-10-19,64.4,53.6,41.9,48.1,43.5,39.3,91,71,44,29.92,29.70,11,0,11,0.00
2013-10-20,61.3,53.2,40.9,50.8,41.2,32.3,95,67,34,29.96,29.64,15,1,15,0.00
2013-10-21,66.2,52.0,38.8,45.2,40.1,35.3,88,66,40,30.06,29.94,9,0,9,0.00
2013-10-22,67.3,54.4,41.8,52.6,46.1,38.9,97,75,51,29.94,29.64,12,0,12,0.00
2013-10-23,51.1,45.1,36.6,39.2,36.1,32.8,92,72,51,29.75,29.53,4,0,4,0.00
2013-10-24,52.1,44.3,36.6,36.6,30.9,24.6,87,61,36,29.83,29.57,15,1,15,0.00
2013-10-25,48.8,40.4,32.9,34.4,29.6,27.2,88,66,44,30.10,29.83,11,0,11,0.00
2013-10-26,54.4,43.5,31.8,38.0,31.0,26.5,87,64,35,30.10,29.82,19,1,19,0.00
2013-10-27,54.6,47.2,38.3,40.7,35.3,29.0,91,65,43,30.01,29.76,13,1,14,0.03
2013-10-28,58.2,45.1,33.5,35.8,31.9,25.2,87,62,41,30.29,30.01,17,1,17,0.03
2013-10-29,47.7,37.5,29.0,34.7,29.0,24.3,92,72,53,30.38,30.29,6,0,6,0.00
2013-10-30,52.6,39.8,30.9,43.3,36.7,28.8,95,89,67,30.31,30.13,9,0,9,0.01
2013-10-31,62.8,49.2,32.8,59.5,46.6,31.6,98,91,80,30.19,29.74,13,1,13,0.02
2013-11-1,70.6,64.4,57.9,63.3,58.5,53.5,94,81,67,29.74,29.40,26,3,26,0.05
2013-11-2,65.2,55.2,47.2,53.8,46.7,39.7,96,76,42,29.66,29.53,7,0,7,0.00
2013-11-3,52.3,42.0,33.4,46.8,33.1,17.0,94,72,45,30.36,29.66,9,0,9,0.02
2013-11-4,40.7,33.3,26.5,24.3,21.5,18.4,85,63,45,30.65,30.36,11,0,11,0.00
2013-11-5,48.5,36.9,25.8,34.9,28.7,22.2,89,73,47,30.66,30.46,9,0,9,0.00
2013-11-6,59.1,50.1,38.9,51.1,42.6,33.3,90,76,53,30.46,29.98,16,1,16,0.00
2013-11-7,67.0,54.2,38.6,58.5,50.8,35.0,95,89,69,29.99,29.62,23,1,23,0.22
2013-11-8,48.0,39.4,31.3,35.0,28.4,21.9,89,65,49,30.05,29.76,14,1,14,0.01
2013-11-9,44.5,37.8,28.8,29.5,24.7,21.6,80,60,41,30.15,29.98,12,1,12,0.00
2013-11-10,54.1,46.1,40.7,42.9,36.8,29.4,93,71,52,29.98,29.67,13,1,14,0.04
2013-11-11,50.9,45.0,37.9,35.5,29.1,24.5,68,54,36,30.04,29.79,18,1,18,0.00
2013-11-12,49.7,36.0,27.1,39.0,26.7,16.6,94,69,54,30.13,29.83,23,1,23,0.10
2013-11-13,35.6,29.0,23.9,17.3,15.3,12.3,73,57,40,30.22,30.12,13,1,13,0.00
2013-11-14,49.8,39.1,28.9,25.1,21.0,16.1,63,49,34,30.12,29.98,16,1,16,0.00
2013-11-15,60.4,45.8,32.4,36.5,24.9,17.3,75,46,23,30.14,30.05,13,1,13,0.00
2013-11-16,59.1,45.1,35.3,35.9,31.0,22.6,86,61,25,30.26,30.13,8,0,8,0.00
2013-11-17,60.2,47.4,32.6,57.8,44.0,30.5,98,88,67,30.26,29.78,6,0,6,0.03
2013-11-18,65.9,59.1,47.9,61.9,49.4,33.7,98,73,42,29.78,29.48,22,2,22,0.16
2013-11-19,47.8,40.0,31.2,34.3,23.2,17.0,62,51,40,30.22,29.60,22,2,22,0.00
2013-11-20,41.2,32.0,23.9,18.3,15.9,12.1,75,53,30,30.57,30.22,9,0,9,0.00
2013-11-21,46.4,34.6,22.3,31.1,21.6,16.3,80,61,35,30.59,30.32,11,0,11,0.00
2013-11-22,46.1,43.8,40.0,45.3,41.2,31.0,98,91,70,30.32,29.76,7,0,7,0.18
2013-11-23,46.5,40.7,29.8,45.6,27.4,16.3,97,61,35,29.84,29.73,21,2,21,0.00
2013-11-24,29.8,24.2,20.3,18.5,4.5,-4.9,73,43,26,30.13,29.73,22,4,22,0.00
2013-11-25,32.1,24.9,16.8,18.3,3.6,-5.9,59,40,20,30.31,30.14,14,1,14,0.00
2013-11-26,41.2,36.6,31.0,37.8,24.8,17.9,96,64,44,30.26,29.98,13,0,13,0.10
2013-11-27,62.2,51.9,37.3,60.5,50.5,33.2,98,95,85,29.97,29.15,46,3,46,1.36
2013-11-28,37.4,31.1,23.6,33.4,17.7,8.5,87,58,39,30.38,29.40,19,2,19,0.00
2013-11-29,33.6,27.1,22.4,18.4,12.6,6.1,81,55,38,30.68,30.38,11,0,11,0.00
2013-11-30,34.4,25.7,17.3,24.1,16.5,8.8,79,68,56,30.73,30.38,4,0,4,0.00
2013-12-1,46.4,38.4,30.5,42.7,35.2,24.1,97,88,77,30.38,29.94,6,0,6,0.24
2013-12-2,40.4,37.8,36.2,38.6,36.6,35.3,98,96,92,29.94,29.86,4,0,4,0.00
2013-12-3,47.6,38.2,32.1,37.8,34.1,29.9,97,86,61,29.89,29.78,6,0,6,0.00
2013-12-4,43.8,35.1,29.4,30.6,29.0,26.5,95,80,55,30.15,29.89,6,0,6,0.00
2013-12-5,55.9,44.0,30.0,54.1,41.6,27.7,97,91,79,30.16,29.84,12,0,12,0.01
2013-12-6,56.1,49.2,34.9,54.5,45.7,33.5,97,88,73,30.07,29.79,11,1,11,0.24
2013-12-7,39.9,33.7,26.9,33.9,28.0,20.0,96,80,58,30.39,30.01,11,0,11,0.13
2013-12-8,31.1,28.3,22.7,22.4,17.6,14.9,83,64,52,30.54,30.39,6,0,6,0.00
2013-12-9,40.2,33.8,27.1,39.6,32.0,17.4,98,93,60,30.44,29.82,8,0,8,0.33
2013-12-10,33.8,30.7,23.8,32.9,29.1,19.4,97,94,82,29.95,29.72,8,0,8,0.03
2013-12-11,29.1,24.9,20.6,21.3,19.2,17.7,90,79,68,30.16,29.94,11,1,18,0.00
2013-12-12,25.0,20.4,13.4,18.6,9.3,1.9,88,63,38,30.22,30.02,15,0,15,0.00
2013-12-13,29.1,22.5,16.2,17.5,11.8,6.0,76,63,50,30.33,29.95,19,2,19,0.00
2013-12-14,29.2,17.7,11.4,28.2,9.0,-3.4,96,70,48,30.55,30.07,11,1,11,0.00
2013-12-15,36.6,28.7,22.5,35.8,26.6,20.7,97,92,80,30.07,29.33,21,2,21,0.30
2013-12-16,28.0,24.1,15.2,22.1,14.1,7.6,86,66,44,30.15,29.69,14,1,14,0.00
2013-12-17,24.6,15.9,6.7,23.1,12.4,3.9,94,86,67,30.23,29.88,7,0,7,0.00
2013-12-18,33.5,25.1,17.5,22.8,19.8,15.3,92,81,60,30.02,29.80,11,1,11,0.01
2013-12-19,42.6,32.8,23.7,28.0,24.2,19.4,84,71,52,30.06,29.89,20,1,20,0.17
2013-12-20,52.6,41.7,30.6,38.5,33.0,27.2,90,72,54,30.07,29.85,11,1,11,0.29
2013-12-21,57.5,49.8,43.0,49.0,44.3,35.1,91,82,72,29.90,29.80,6,1,11,0.00
2013-12-22,55.7,43.3,35.4,54.6,41.9,34.5,98,95,86,29.97,29.73,9,1,9,0.01
2013-12-23,36.9,34.6,32.8,36.3,34.0,32.0,98,98,97,30.03,29.89,8,0,8,0.12
2013-12-24,36.7,32.5,27.5,36.2,23.4,16.9,98,70,52,30.14,29.98,8,0,8,0.01
2013-12-25,27.4,19.6,15.0,18.2,7.1,1.4,77,58,43,30.49,30.14,11,1,12,0.00
2013-12-26,34.2,26.7,16.4,31.8,22.6,9.1,95,84,69,30.45,30.02,9,0,9,0.01
2013-12-27,33.7,28.2,22.7,22.4,20.7,18.6,90,74,56,30.22,30.14,5,1,11,0.02
2013-12-28,46.8,34.5,26.7,28.8,25.3,21.0,86,70,47,30.17,29.93,19,1,19,0.00
2013-12-29,43.4,36.9,28.4,40.6,33.2,25.2,97,87,66,29.98,29.32,9,1,13,1.02
2013-12-30,41.7,32.9,20.4,36.0,24.5,10.5,96,73,42,30.10,29.45,16,1,16,0.01
2013-12-31,25.1,19.7,14.3,14.8,6.5,-2.8,72,56,44,30.13,29.97,11,0,11,0.00
2014-1-1,27.0,21.9,15.6,14.8,9.1,5.8,77,58,44,30.33,30.13,14,1,14,0.00
2014-1-2,25.1,17.0,3.3,23.6,14.4,0.6,95,89,72,30.30,29.77,22,2,22,0.00